Location: Penzberg
(47.7615°N, 11.3159°E)
Time: 02:33:36
(UTC+02:00)

Tiangong 2 - Visible Passes

Search period start: 22 May 2018 00:00
Search period end: 01 June 2018 00:00
Orbit: 382 x 385 km, 42.8° (Epoch: 21 May)

Date Brightness Start Highest point End Pass type
(mag) Time Alt. Az. Time Alt. Az. Time Alt. Az.
22 May 2.8 21:58:50 10° SSW 22:00:54 16° SSE 22:01:47 15° SE visible
23 May 2.0 22:34:43 10° SW 22:37:27 27° SSE 22:37:44 27° SSE visible
24 May 2.5 21:35:19 10° SW 21:37:49 22° SSE 21:40:20 10° ESE visible
24 May 2.3 23:11:13 10° WSW 23:13:17 28° SSW 23:13:17 28° SSW visible
25 May 1.9 22:11:35 10° WSW 22:14:25 31° S 22:16:21 17° ESE visible
25 May 3.5 23:48:01 10° WSW 23:48:33 13° WSW 23:48:33 13° WSW visible
26 May 1.9 22:48:13 10° WSW 22:51:04 31° S 22:51:28 30° S visible
27 May 1.9 21:48:30 10° WSW 21:51:22 33° S 21:54:14 10° ESE visible
27 May 3.1 23:25:09 10° WSW 23:26:29 17° SW 23:26:29 17° SW visible
28 May 2.2 22:25:16 10° WSW 22:27:59 27° SSW 22:29:15 20° SSE visible
29 May 3.1 23:02:28 10° WSW 23:04:10 16° SSW 23:04:10 16° SSW visible
30 May 2.7 22:02:22 10° WSW 22:04:51 21° SSW 22:06:53 12° SSE visible
31 May 3.5 22:40:20 10° SW 22:41:14 11° SSW 22:41:47 11° SSW visible
